This is the latest recevied weather packets stored in our database for station/object N5YHM-13. If no packets are shown the sender has not sent any weather packets the latest 10 day(s).
| Time | Temp. | Humidity | Pressure | Rain* | Wind** | Luminosity | Snow |
|---|---|---|---|---|---|---|---|
| 1778022555 | 25.56° C | 78% | 1013.3 hPa | 0 mm | - | 4 W/m² | - |
| 1778022252 | 26.11° C | 77% | 1013.8 hPa | 0 mm | - | 6 W/m² | - |
| 1778021948 | 26.11° C | 77% | 1013.4 hPa | 0 mm | - | 6 W/m² | - |
| 1778021645 | 26.11° C | 76% | 1013.5 hPa | 0 mm | - | 8 W/m² | - |
| 1778021341 | 26.11° C | 77% | 1013.5 hPa | 0 mm | - | 6 W/m² | - |
| 1778021039 | 26.11° C | 76% | 1013.5 hPa | 0 mm | - | 7 W/m² | - |
| 1778020735 | 26.11° C | 77% | 1013.6 hPa | 0 mm | - | 6 W/m² | - |
| 1778020432 | 26.11° C | 76% | 1013.4 hPa | 0 mm | - | 8 W/m² | - |
| 1778020128 | 26.11° C | 75% | 1013.6 hPa | 0 mm | - | 7 W/m² | - |
| 1778019825 | 26.11° C | 74% | 1013.6 hPa | 0 mm | - | 8 W/m² | - |
| 1778019522 | 26.11° C | 74% | 1013.4 hPa | 0 mm | - | 7 W/m² | - |
| 1778019218 | 26.11° C | 73% | 1013.5 hPa | 0 mm | - | 8 W/m² | - |
| 1778018915 | 26.11° C | 74% | 1013.4 hPa | 0 mm | - | 9 W/m² | - |
| 1778018612 | 26.67° C | 74% | 1013.6 hPa | 0 mm | - | 11 W/m² | - |
| 1778018310 | 26.67° C | 74% | 1013.7 hPa | 0 mm | - | 10 W/m² | - |
| 1778018008 | 26.67° C | 73% | 1013.5 hPa | 0 mm | - | 13 W/m² | - |
| 1778017706 | 26.67° C | 72% | 1013.5 hPa | 0 mm | - | 8 W/m² | - |
| 1778017403 | 26.67° C | 71% | 1013.8 hPa | 0 mm | - | 13 W/m² | - |
| 1778017100 | 26.67° C | 71% | 1013.5 hPa | 0 mm | - | 18 W/m² | - |
| 1778016798 | 26.67° C | 70% | 1013.4 hPa | 0 mm | - | 13 W/m² | - |
| 1778016494 | 26.67° C | 70% | 1013.7 hPa | 0 mm | - | 8 W/m² | - |
| 1778016191 | 26.67° C | 69% | 1013.4 hPa | 0 mm | - | 7 W/m² | - |
| 1778015887 | 27.22° C | 69% | 1013.5 hPa | 0 mm | - | 12 W/m² | - |
| 1778015585 | 27.22° C | 68% | 1013.6 hPa | 0 mm | - | 14 W/m² | - |
| 1778015281 | 27.22° C | 68% | 1013.6 hPa | 0 mm | - | 19 W/m² | - |
* Rain latest hour (hover to see other rain measurements)
** Current wind speed in m/s (hover to see current wind gust speed)